TimePDT,TemperatureF,Dew PointF,Humidity,Sea Level PressureIn,VisibilityMPH,Wind Direction,Wind SpeedMPH,Gust SpeedMPH,PrecipitationIn,Events,Conditions,WindDirDegrees,DateUTC
12:50 AM,48.2,44.6,87,29.78,10.0,SSW,19.6,-,N/A,,Scattered Clouds,210,2013-04-05 07:50:00
12:53 AM,48.0,45.0,89,29.79,10.0,SSW,18.4,-,N/A,,Mostly Cloudy,210,2013-04-05 07:53:00
1:53 AM,48.0,44.1,86,29.79,10.0,SSW,18.4,26.5,N/A,,Mostly Cloudy,210,2013-04-05 08:53:00
2:53 AM,46.9,43.0,86,29.80,10.0,SSW,17.3,-,N/A,,Mostly Cloudy,210,2013-04-05 09:53:00
3:00 AM,46.4,42.8,87,29.79,10.0,SSW,15.0,-,N/A,,Mostly Cloudy,210,2013-04-05 10:00:00
3:53 AM,46.9,43.0,86,29.80,10.0,SSW,17.3,-,N/A,,Mostly Cloudy,200,2013-04-05 10:53:00
4:53 AM,46.9,42.1,83,29.81,10.0,SSW,11.5,-,N/A,,Mostly Cloudy,200,2013-04-05 11:53:00
5:53 AM,46.0,41.0,83,29.80,10.0,SSW,16.1,-,N/A,,Scattered Clouds,200,2013-04-05 12:53:00
6:53 AM,45.0,41.0,86,29.81,10.0,SSW,13.8,-,N/A,,Mostly Cloudy,200,2013-04-05 13:53:00
7:53 AM,46.0,39.9,79,29.81,10.0,SSW,20.7,28.8,N/A,,Overcast,200,2013-04-05 14:53:00
8:53 AM,46.0,41.0,83,29.82,9.0,SSW,18.4,27.6,0.00,Rain,Light Rain,210,2013-04-05 15:53:00
9:53 AM,46.9,42.1,83,29.81,10.0,SSW,24.2,31.1,0.01,Rain,Light Rain,210,2013-04-05 16:53:00
10:53 AM,48.0,42.1,80,29.82,10.0,SW,26.5,33.4,0.00,Rain,Light Rain,220,2013-04-05 17:53:00
11:35 AM,48.2,41.0,76,29.81,10.0,SW,32.2,39.1,0.00,,Overcast,220,2013-04-05 18:35:00
11:53 AM,50.0,41.0,71,29.82,10.0,SW,27.6,38.0,0.00,,Overcast,220,2013-04-05 18:53:00
12:53 PM,52.0,42.1,69,29.82,10.0,SW,26.5,-,N/A,,Mostly Cloudy,230,2013-04-05 19:53:00
1:53 PM,57.0,41.0,55,29.81,10.0,SW,32.2,36.8,N/A,,Mostly Cloudy,230,2013-04-05 20:53:00
2:53 PM,57.9,41.0,53,29.82,10.0,SW,21.9,33.4,N/A,,Mostly Cloudy,230,2013-04-05 21:53:00
3:53 PM,53.1,45.0,74,29.84,10.0,South,9.2,-,0.05,,Mostly Cloudy,180,2013-04-05 22:53:00
4:53 PM,55.9,41.0,57,29.84,10.0,WSW,15.0,24.2,N/A,,Mostly Cloudy,240,2013-04-05 23:53:00
5:53 PM,55.9,41.0,57,29.83,10.0,SW,15.0,-,0.01,,Mostly Cloudy,230,2013-04-06 00:53:00
6:53 PM,54.0,37.9,55,29.83,10.0,SW,27.6,33.4,N/A,,Mostly Cloudy,230,2013-04-06 01:53:00
7:53 PM,51.1,37.9,61,29.84,10.0,SW,10.4,-,N/A,,Overcast,230,2013-04-06 02:53:00
8:53 PM,50.0,37.9,63,29.84,10.0,SW,13.8,-,N/A,,Overcast,220,2013-04-06 03:53:00
9:53 PM,48.9,37.9,66,29.85,10.0,SSW,16.1,-,N/A,,Overcast,210,2013-04-06 04:53:00
10:53 PM,48.0,37.9,68,29.85,10.0,SSW,17.3,-,N/A,,Overcast,210,2013-04-06 05:53:00
11:53 PM,46.9,39.0,74,29.86,10.0,SSW,11.5,-,0.00,Rain,Light Rain,200,2013-04-06 06:53:00